Location: Buckland
(65.9785°N, 161.1281°W)
Time: 08:08:15
(UTC+00:00)

Transit 4A - Pass Details

Date: 01 August 2021
Orbit: 870 x 974 km, 66.8° (Epoch: 27 September)

Event Time Altitude Azimuth Distance (km) Brightness Sun altitude
Exits shadow 10:42:51 - 180° (S) 2,756 9.7 -6.1°
Reaches altitude 10° 10:43:33 10° 176° (S) 2,530 9.5 -6.1°
Maximum altitude 10:48:20 27° 121° (ESE) 1,616 8.9 -6.1°
Drops below altitude 10° 10:53:07 10° 65° (ENE) 2,530 10.5 -6.1°
Sets 10:55:56 0° 54° (NE) 3,476 11.5 -6.1°
